Find Kosmos-2482

NORAD ID: 39057 Int'l Des: 2013-001 Owner: VVKO Country: RU operational
LEOCIRCULARPOLAR

Current View

Loading 3D Globe...

About Kosmos-2482

Kosmos-2482 (NORAD 39057) is a satellite launched Jan 15, 2013 by VVKO of RU. It operates in LEO, CIRCULAR, POLAR orbit with a mass of 280.00 kg.

Upcoming Passes

Passes for default location (London). Set your location on the main map for personalized predictions.

Altitude History

Loading altitude history...

Two-Line Element Set

1 39057U 13001A 26194.60127073 .00000063 00000-0 38289-3 0 9999
2 39057 82.4961 203.9266 0026778 329.9562 29.9980 12.42997135611996
Epoch: Jul 13, 2026 • Age: 12 hours

Current Status

Altitude 1520.3 km
Apogee / Perigee N/A
Velocity 7.11 km/s
Sub-Earth Point 79.52°N, 8.34°E
Launch Date Jan 15, 2013
Age 13.4 years
Type other

Technical Details

Classification Payload
Mass 280.00 kg
Dry Mass 280.00 kg
Total Mass 280.00 kg
Length 1.60 m
Diameter 0.80 m
Span 7.00 m
Shape Cyl + Ant
Manufacturer RESH
Bus Type Strela-3M
Phase Status In Orbit
Owner/State VVKO/RU

Most Searched